Theta_e
314 317 320 325 325 324 322 320 316 312 307 302 298 295 294 294 293 293 293 292 292 291 290 290 290 289 289 288 288 287 287 287 287 287 286 286 286 286 286 285 285 285 285
316 318 319 320 319 319 316 317 314 307 299 297 295 294 293 293 292 292 292 291 291 290 290 289 289 288 288 287 287 286 286 286 286 286 286 286 286 285 285 285 285 285 284
312 314 313 313 313 313 313 310 307 299 295 294 293 293 293 292 292 291 291 291 290 290 289 289 288 287 287 286 285 285 285 285 285 285 285 285 285 285 285 284 285 284 284
308 309 309 309 309 309 308 303 297 295 294 293 292 292 292 292 291 291 290 290 289 289 288 288 287 286 286 285 285 285 285 285 285 285 285 285 285 285 284 285 283 283 283
305 305 306 306 305 302 299 295 294 293 293 292 292 292 291 291 290 290 289 288 288 287 287 287 286 285 284 284 285 285 285 285 285 285 285 285 284 285 284 284 282 282 282
303 304 303 300 298 296 294 293 292 292 292 292 291 291 290 290 290 289 288 287 287 287 286 285 285 284 284 284 284 284 285 285 285 285 285 284 285 284 284 282 281 280 281
301 299 297 295 294 293 292 292 292 291 291 291 290 290 289 289 288 288 287 287 287 286 286 286 285 284 284 284 284 284 284 284 285 285 284 284 285 284 283 282 280 278 279
296 296 294 294 293 292 292 291 291 291 290 290 289 289 288 287 287 287 287 287 286 286 286 285 285 284 284 284 284 284 284 284 285 284 284 284 284 284 282 281 280 280 282
294 294 293 292 292 291 291 291 290 290 289 289 288 287 286 286 286 287 287 287 286 285 285 285 284 283 283 284 284 284 284 285 284 283 283 283 283 283 282 281 281 279 279
294 294 293 292 291 291 291 290 290 289 289 287 286 286 286 286 286 286 286 286 286 285 285 284 284 283 283 284 285 285 285 284 284 283 282 282 282 282 281 281 280 279 277
294 293 292 292 291 291 290 290 289 288 287 286 285 285 285 285 285 285 286 285 285 285 284 284 283 283 283 284 285 285 285 284 284 282 282 281 283 282 281 281 280 279 278
294 293 292 291 290 290 290 288 288 287 286 285 285 285 285 285 285 284 284 284 284 284 283 282 282 283 284 285 284 283 284 284 283 283 282 281 280 282 281 281 280 280 278
292 290 290 290 290 289 289 287 286 285 284 284 284 284 284 285 284 283 283 282 283 283 282 282 282 283 283 283 282 281 283 283 283 282 281 281 280 281 281 280 280 279 278
289 288 289 289 288 288 287 287 285 284 284 284 284 283 285 283 282 282 282 282 281 281 282 282 282 282 282 281 280 280 281 281 281 281 281 280 280 280 280 279 279 278 278
288 286 286 287 288 286 286 286 285 285 285 286 286 289 284 282 282 281 281 281 281 282 282 281 281 280 280 280 280 280 279 279 279 280 279 279 279 279 279 278 278 277 277
286 285 285 285 284 284 284 283 283 283 284 284 289 283 282 281 281 280 280 281 282 281 280 279 278 278 278 278 277 277 278 278 278 277 278 277 277 277 277 277 277 276 275
286 284 283 283 283 283 282 282 281 281 281 282 281 280 280 280 279 279 280 281 279 279 277 276 277 277 277 276 276 275 275 275 275 276 276 276 275 276 276 276 275 275 274
286 284 283 284 285 284 283 282 283 284 283 280 278 278 278 278 278 278 278 278 278 276 276 276 276 276 275 275 274 273 273 273 273 273 274 274 273 273 274 273 273 273 273
285 283 283 284 284 284 283 282 285 281 281 279 277 276 276 276 277 277 276 277 276 276 276 276 275 274 274 273 272 272 272 272 272 272 272 272 272 271 270 270 270 270 270
284 284 285 285 284 283 282 285 280 278 278 278 276 277 276 275 276 276 275 275 275 275 274 274 273 273 272 272 271 271 271 270 270 270 270 270 270 269 269 268 268 268 269
284 284 285 285 284 284 285 281 279 278 277 277 277 277 276 276 276 275 275 274 274 273 273 272 272 272 271 270 270 270 269 269 269 269 269 269 269 269 268 267 267 267 267
283 282 282 283 281 281 281 279 278 278 277 277 277 275 273 273 274 274 273 273 272 272 271 271 271 270 270 269 269 269 269 269 268 268 268 268 268 268 267 267 267 267 266
282 281 279 279 280 279 277 277 277 277 276 276 275 274 273 273 273 272 272 272 271 271 270 270 269 269 269 269 268 268 268 268 267 267 267 267 267 267 266 266 266 266 266
282 281 281 280 277 275 275 275 274 274 274 274 273 272 272 272 271 271 270 270 270 269 269 268 268 268 268 268 268 268 267 267 267 267 266 266 266 266 265 265 265 265 264
278 277 276 275 274 272 271 271 272 272 272 272 272 271 270 270 269 269 269 268 268 268 268 268 268 267 267 268 268 267 267 266 266 266 266 265 265 265 264 264 264 264 263
275 273 272 272 272 272 272 271 270 271 270 271 270 270 270 269 269 268 268 267 267 268 268 267 267 267 266 267 267 266 266 266 266 265 265 265 264 264 264 264 264 263 263
Wind_Speed
21 25 29 31 33 35 32 27 23 22 22 22 21 19 17 15 13 10 8 7 5 4 3 4 5 7 8 8 10 11 12 12 9 20 27 29 33 34 38 37 34 35 37
22 26 28 31 34 34 32 28 25 26 25 24 21 19 17 14 12 9 8 7 5 4 3 4 6 7 8 9 11 13 15 14 15 21 26 29 31 36 34 33 34 32 37
23 27 30 34 34 33 31 31 30 29 26 23 20 18 17 14 11 10 7 6 3 2 2 4 5 5 8 11 13 14 15 15 17 21 25 28 26 29 32 31 28 34 37
25 28 32 34 34 33 33 32 32 29 26 23 20 17 15 13 11 9 6 5 3 1 2 3 4 5 7 10 13 14 17 17 19 18 22 23 23 24 28 29 37 33 38
28 29 31 32 33 34 33 32 29 26 24 22 20 17 14 12 10 8 5 4 3 2 3 3 4 6 6 8 12 14 16 17 18 16 17 21 24 24 25 23 26 30 33
30 32 33 33 34 34 33 31 28 25 23 20 18 16 14 12 11 9 6 5 4 3 3 4 6 7 8 8 9 11 12 16 18 17 16 20 20 24 22 25 23 24 14
33 32 34 34 34 34 32 30 28 25 23 20 17 15 13 11 9 8 7 5 4 3 2 4 5 6 7 9 11 12 13 14 14 16 20 20 20 22 21 27 19 19 18
32 34 35 36 35 33 31 30 27 25 22 19 17 15 13 12 9 7 6 5 3 1 2 3 4 7 8 9 12 12 15 15 13 17 18 19 20 17 20 18 20 21 23
36 38 39 39 37 35 33 31 27 24 22 19 17 15 13 12 11 10 7 6 4 1 3 4 5 7 8 8 11 13 15 15 15 16 17 18 15 16 15 18 17 19 12
41 42 42 40 39 38 35 31 27 23 21 19 17 15 14 12 11 10 9 8 7 5 5 6 7 9 9 10 11 14 14 17 16 20 20 18 15 14 14 14 13 12 9
39 42 42 41 39 37 34 31 27 24 22 20 17 15 14 12 11 11 11 12 9 8 8 10 10 10 10 10 11 15 15 15 17 18 19 22 14 12 9 12 12 11 10
42 44 43 42 40 37 34 30 27 26 24 21 18 15 14 13 13 13 12 11 9 9 11 11 10 11 11 13 13 15 14 16 19 19 19 17 15 13 14 13 12 11 11
40 40 42 42 39 36 34 31 28 26 24 22 19 17 16 13 15 15 13 11 9 10 12 12 12 12 10 12 16 16 14 17 19 20 20 17 15 18 16 15 11 9 10
33 36 41 43 38 36 33 32 31 28 25 22 20 19 16 17 16 15 13 10 8 7 8 10 11 12 13 13 15 13 12 14 17 19 20 20 17 15 14 12 12 8 9
30 32 34 39 40 38 33 32 29 26 25 24 21 20 22 21 18 14 12 9 6 8 9 14 14 14 14 15 15 14 13 13 15 17 19 19 18 16 14 11 11 10 7
31 33 35 38 37 36 33 26 24 21 23 20 19 20 19 16 14 13 10 9 10 13 13 15 14 12 13 14 15 16 15 14 12 15 16 16 16 14 12 11 12 11 10
32 32 33 35 37 35 33 30 25 21 17 17 19 17 18 17 15 13 11 12 15 15 14 12 11 11 13 13 13 13 14 12 13 14 16 16 14 12 10 10 11 12 12
28 32 35 38 41 38 36 33 29 26 24 24 20 20 18 16 14 12 13 18 16 14 12 11 11 11 12 13 13 13 12 11 11 12 13 13 11 10 10 9 8 9 10
32 32 33 36 36 37 36 32 29 28 29 29 24 20 19 16 14 15 17 19 16 13 13 13 13 12 13 13 12 12 12 11 10 11 11 11 9 9 10 10 9 9 10
32 34 39 39 37 35 33 32 31 30 28 29 29 28 24 22 23 23 21 18 16 15 14 13 12 12 13 13 12 12 11 10 9 9 10 10 9 8 10 11 11 11 10
33 35 39 37 38 37 36 34 34 33 32 32 31 27 26 27 26 25 23 19 16 15 13 13 12 12 12 12 11 10 10 9 9 9 9 10 9 9 10 10 11 11 12
32 35 37 36 36 34 34 34 34 33 33 32 30 26 22 23 23 22 20 18 16 14 13 13 13 12 12 12 11 11 11 9 8 10 10 11 11 12 12 12 12 12 11
29 30 28 28 29 30 31 31 32 33 33 31 28 27 28 26 24 21 20 18 17 15 14 15 14 13 13 13 12 12 12 11 9 10 10 12 13 13 13 14 13 13 13
29 29 29 29 28 28 31 33 33 32 31 29 27 27 28 27 23 21 19 17 17 15 15 16 16 15 14 14 15 14 15 13 13 12 13 14 15 16 16 16 15 14 14
29 30 31 30 31 31 30 30 29 29 29 28 27 27 26 24 23 22 19 18 18 18 17 17 18 18 17 17 16 17 17 16 16 15 15 17 19 19 19 18 18 17 15
30 30 28 28 29 29 30 30 30 28 29 27 26 25 25 25 22 20 20 19 19 19 19 19 19 19 19 18 18 20 20 19 18 16 16 17 19 20 19 19 18 18 17
Wind_Direction
212 207 211 203 197 183 179 178 185 181 177 174 168 162 159 157 151 149 136 126 120 104 71 38 27 11 12 11 6 6 4 357 314 316 323 329 335 338 341 344 348 346 344
200 199 199 193 184 181 177 178 184 180 174 171 167 164 160 159 154 151 149 137 129 105 65 27 18 17 15 4 1 3 355 350 334 319 325 330 333 337 341 342 345 343 348
196 193 188 183 181 178 174 171 175 174 171 168 167 167 164 161 162 160 156 145 135 99 49 26 26 12 5 2 0 356 351 343 332 325 324 330 331 341 339 339 344 344 350
191 188 183 180 179 177 172 171 172 173 171 169 169 167 165 166 169 165 161 149 139 122 39 28 26 12 7 357 352 349 343 338 334 331 327 325 330 336 339 341 341 343 343
191 188 184 180 179 174 170 168 169 170 170 171 171 169 170 171 173 169 164 155 146 102 61 35 16 18 19 356 343 334 332 330 330 326 319 326 330 341 339 338 335 333 349
195 191 187 180 175 170 169 169 169 168 170 172 174 176 175 176 182 182 174 164 135 98 58 31 19 12 354 335 331 324 322 325 322 318 320 322 324 333 329 339 336 341 338
195 193 184 177 174 172 172 171 171 173 174 175 177 181 179 184 189 185 172 155 135 104 40 17 16 358 334 325 327 326 325 326 318 319 316 317 319 330 322 327 333 332 320
193 188 183 180 179 177 176 176 175 176 177 177 180 184 187 187 190 177 164 161 164 192 311 319 317 321 328 326 322 318 323 321 320 321 319 321 320 315 314 319 329 335 348
195 193 189 187 182 180 180 179 179 178 178 181 183 185 188 192 197 189 187 196 191 264 315 321 319 310 314 312 306 311 318 316 321 324 323 318 308 306 307 320 336 352 346
196 196 195 191 188 185 184 181 183 183 182 182 182 188 196 200 204 198 204 217 226 245 273 291 295 294 298 299 299 296 302 326 320 324 326 321 308 306 309 318 328 345 348
196 197 195 194 192 191 186 185 183 180 181 183 187 191 197 200 202 210 212 227 236 243 258 276 276 282 283 290 295 304 294 314 312 314 318 311 300 303 313 321 320 315 322
199 198 197 194 193 191 188 184 184 183 182 184 187 192 198 207 215 222 218 221 230 245 260 279 283 288 288 282 292 305 298 298 302 310 308 302 303 319 325 326 320 302 302
196 191 192 192 192 190 186 183 181 186 187 186 191 198 205 222 221 220 215 215 217 241 259 276 280 287 289 284 299 312 298 290 292 296 299 287 286 308 314 316 315 299 300
184 186 191 189 187 188 189 189 188 188 190 193 200 208 224 220 220 217 213 221 230 249 268 274 280 277 275 287 306 306 296 285 285 289 299 302 298 300 304 307 310 306 305
183 183 181 183 185 185 190 192 195 200 201 200 214 238 218 219 222 218 219 230 250 266 276 268 272 274 288 304 309 307 307 297 283 292 297 298 301 303 305 305 304 307 294
177 178 179 180 182 185 186 187 197 204 209 222 241 228 223 226 217 214 222 232 240 238 252 258 266 286 305 310 309 308 305 308 298 298 295 296 297 295 291 294 295 296 298
186 180 179 178 179 182 186 187 186 202 210 222 219 220 221 226 218 216 215 222 235 249 246 256 278 295 298 298 302 306 308 308 302 299 296 296 293 289 291 291 293 293 295
192 187 182 181 185 188 191 194 198 201 204 210 211 213 215 216 215 212 212 224 239 247 256 270 279 282 286 289 290 296 298 301 304 304 297 293 289 288 293 294 297 296 297
195 188 186 187 190 191 194 199 212 217 214 214 208 212 209 212 208 211 217 233 242 252 260 266 270 274 280 282 286 287 291 295 296 297 298 294 288 293 295 296 295 293 294
203 198 195 193 194 196 200 209 215 215 213 215 214 217 209 205 204 219 225 237 245 247 249 256 262 270 272 275 278 283 289 297 296 292 291 285 279 286 294 298 300 302 301
204 204 200 198 199 202 210 211 213 212 213 216 220 218 216 217 220 224 232 238 240 243 249 256 259 262 267 272 276 279 282 286 295 294 290 283 282 283 288 294 297 299 301
211 206 203 204 207 211 216 216 214 215 219 220 219 214 208 223 227 228 233 235 238 243 248 255 260 262 263 265 269 275 279 284 292 290 291 285 283 279 280 285 289 290 291
220 217 217 217 219 220 220 219 217 220 221 221 218 214 210 220 230 233 234 233 237 241 245 251 256 259 263 268 268 273 276 282 281 280 284 285 285 282 285 287 288 288 286
228 228 230 231 227 224 224 222 222 222 221 220 218 219 219 222 229 232 235 236 239 244 248 255 260 261 262 263 267 269 272 273 273 275 278 279 278 279 281 281 282 281 281
235 233 234 232 229 222 223 226 226 226 225 219 218 221 225 225 226 228 232 237 242 245 249 255 260 264 265 268 270 270 269 267 269 271 272 274 277 277 276 276 278 279 276
244 242 240 236 234 235 233 230 227 226 226 225 224 224 226 227 230 232 236 240 246 251 255 257 261 264 266 268 270 269 267 267 268 269 275 276 276 276 275 275 277 275 274